Regional Weather Roundup
Issued by NWS

Home | Current Version | Previous Version | Graphics & Text | Print | Product List | Glossary On
Versions: 1 2 3 4 5 6 7 8 9 10 11 12 13 14 15 16 17 18 19 20 21 22 23 24 25 26 27 28 29 30 31 32 33 34 35 36 37 38 39 40 41 42 43 44 45 46 47 48 49 50
000
ASUS43 KFSD 292302
RWRSD

WEATHER ROUNDUP FOR SOUTH DAKOTA
NATIONAL WEATHER SERVICE SIOUX FALLS SD
600 PM CDT FRI AUG 29 2014

NOTE: "FAIR" INDICATES FEW OR NO CLOUDS BELOW 12,000 FEET WITH NO
SIGNIFICANT WEATHER AND/OR OBSTRUCTIONS TO VISIBILITY.


SDZ001>005-009-010-012>017-300000-
NORTHWEST AND NORTH CENTRAL SOUTH DAKOTA

CITY           SKY/WX    TMP DP  RH WIND       PRES   REMARKS
BUFFALO          N/A     72  52  49 N10       29.93F
FAITH            N/A     74  57  55 N15       29.95R
MOBRIDGE       PTSUNNY   72  61  68 N16       29.88R
$$

SDZ012>016-024>037-041>051-057-063-072>074-300000-
SOUTHWEST AND SOUTH CENTRAL SOUTH DAKOTA

CITY           SKY/WX    TMP DP  RH WIND       PRES   REMARKS
RAPID CTY ARPT SUNNY     79  53  40 N14       29.97F
PIERRE         PTSUNNY   73  57  57 NW17G25   29.86S
CUSTER         MOSUNNY   65  50  58 SE8       30.10R
ELLSWORTH AFB  MOSUNNY   78  53  41 N10       29.98S
PHILIP         MOSUNNY   77  57  50 N15       29.93S
PINE RIDGE     MOSUNNY   73  54  51 N9        30.00S
WINNER         FAIR      82  58  43 N20G29    29.85S
$$

SDZ004>011-016>023-039-040-300000-
NORTHEAST SOUTH DAKOTA

CITY           SKY/WX    TMP DP  RH WIND       PRES   REMARKS
ABERDEEN       MOSUNNY   75  63  66 N18       29.80R
WATERTOWN      PTSUNNY   77  65  66 NW9       29.78F
SISSETON         N/A     77  66  68 N10       29.76S
$$

SDZ017-020-022-023-036>040-048>070-300000-
SOUTHEAST SOUTH DAKOTA

CITY           SKY/WX    TMP DP  RH WIND       PRES   REMARKS
SIOUX FALLS    CLOUDY    70  65  84 CALM      29.77S
HURON          PTSUNNY   74  69  85 N10       29.78R
CHAMBERLAIN    MOSUNNY   78  59  52 N14       29.82R
MITCHELL       MOSUNNY   82  67  60 NW5       29.77F
YANKTON        PTSUNNY   68  64  88 W7        29.77S THUNDER
$$

ABBREVIATIONS USED IN REMARKS
   TC - TEMPERATURE IN CELSIUS
  WCI - WIND CHILL INDEX
   HX - HEAT INDEX
  VSB - VISIBILITY




USA.gov is the U.S. government's official web portal to all federal, state and local government web resources and services.